Temp
7 7 6 6 5 5 5 5 5 5 5 5 5 6 6 6 6 5 6 5 5 5 5 5 5 5 5 4 4 4 4 3 2 2 2 2 2 2 1 1 2 2 2
7 7 6 6 6 6 6 5 5 4 4 4 5 5 5 5 5 5 5 5 5 5 5 5 5 4 4 4 4 4 3 3 2 2 2 2 2 1 1 1 1 1 1
7 7 6 5 6 6 6 6 5 4 4 4 4 4 4 4 4 5 5 5 5 4 4 4 4 4 4 4 3 3 3 3 2 2 2 1 1 1 1 0 1 1 1
7 7 6 6 6 6 6 6 6 5 5 4 4 4 4 4 4 4 4 4 5 4 4 4 4 4 4 3 3 3 3 3 2 2 1 1 1 1 0 0 0 1 1
6 6 6 7 7 7 6 6 6 5 5 4 4 4 3 3 3 3 3 3 4 4 4 3 3 3 3 3 2 3 3 2 2 2 1 1 -0 -0 0 0 0 1 1
4 5 5 5 6 6 6 6 6 6 5 4 4 4 3 3 3 3 3 3 3 4 4 4 3 2 2 1 1 1 2 3 1 1 1 1 0 0 -0 0 0 0 0
4 4 4 5 5 5 5 5 5 4 4 3 3 3 3 3 3 3 3 3 3 2 3 3 3 3 2 2 1 1 2 1 1 1 0 0 0 -1 -1 -0 -0 -0 0
2 3 4 4 4 5 5 5 5 4 4 3 3 2 2 2 2 2 3 3 3 2 2 3 3 3 2 2 2 1 2 1 1 1 0 0 -0 -0 -1 -1 -1 -0 0
2 2 2 2 2 3 3 3 3 3 3 4 4 3 3 2 2 2 2 2 2 2 2 2 2 2 2 2 1 1 1 1 0 0 1 0 -1 -1 -1 -1 -1 -1 -0
2 2 2 2 2 2 2 3 3 3 3 3 3 3 3 2 2 2 2 2 2 2 2 2 2 2 2 1 1 2 1 0 0 -0 -1 0 -1 -1 -1 -1 -1 -1 -1
2 2 2 2 2 2 2 2 2 2 2 2 2 1 2 2 2 2 2 1 1 1 1 1 1 1 1 1 1 1 0 0 1 -0 -1 -1 -1 -2 -2 -2 -2 -2 -1
2 2 2 2 2 3 2 2 2 3 2 1 1 1 1 1 2 2 1 1 1 1 1 1 1 1 1 0 1 0 1 -0 -0 -1 -1 -1 -2 -2 -2 -2 -2 -2 -2
1 1 2 2 3 2 3 3 3 3 2 2 -0 -1 -1 -0 1 1 1 0 0 0 0 0 0 0 -0 1 1 0 -1 0 -1 -2 -1 -2 -2 -2 -2 -2 -2 -2 -3
1 1 2 2 2 2 2 1 1 1 1 0 -1 -2 -2 -1 -1 -0 -0 -0 -0 -0 0 -0 0 0 1 0 0 0 -0 0 -1 -2 -3 -3 -3 -3 -3 -2 -3 -3 -3
-1 -0 0 1 2 1 1 1 1 1 -0 -1 -2 -3 -2 -2 -2 -1 -1 -1 -1 -0 -1 -0 -0 0 0 0 -0 -0 -1 -2 -2 -3 -3 -3 -3 -3 -3 -3 -3 -4 -4
-1 0 1 1 1 1 1 1 1 1 -2 -2 -3 -3 -3 -3 -2 -2 -2 -1 -1 -1 -2 -0 0 -1 -0 -1 -1 -1 -3 -3 -3 -3 -3 -3 -3 -3 -3 -4 -4 -4 -4
-0 0 1 1 0 0 0 -1 -1 -2 -2 -2 -2 -3 -3 -2 -3 -2 -1 -2 -2 -1 -1 -0 -0 -1 -1 -1 -2 -3 -3 -3 -3 -3 -3 -4 -4 -4 -4 -4 -4 -4 -5
-1 -0 0 1 -0 -1 -1 -2 -3 -2 -2 -2 -2 -2 -3 -3 -3 -2 -2 -2 -1 -1 -1 -1 -3 -2 -3 -3 -3 -3 -3 -3 -3 -4 -4 -4 -4 -4 -5 -5 -5 -5 -6
-1 -1 -1 -0 -1 -2 -3 -3 -3 -3 -3 -3 -3 -3 -3 -2 -3 -3 -2 -2 -2 -3 -2 -3 -3 -3 -3 -3 -3 -3 -3 -4 -4 -4 -4 -4 -5 -5 -5 -4 -5 -6 -7
-2 -2 -1 -1 -1 -3 -3 -4 -3 -2 -2 -2 -3 -3 -2 -3 -3 -2 -2 -4 -3 -3 -3 -3 -3 -3 -3 -4 -4 -4 -5 -5 -5 -5 -5 -5 -5 -5 -5 -6 -6 -7 -8
-1 -2 -2 -1 -2 -2 -3 -3 -2 -3 -3 -2 -1 -2 -2 -2 -3 -3 -4 -3 -4 -4 -4 -4 -3 -3 -4 -4 -4 -4 -5 -5 -5 -5 -5 -5 -5 -5 -6 -7 -8 -8 -9
-1 -1 -1 -1 -1 -1 -2 -2 -2 -1 -1 -1 -3 -3 -3 -4 -4 -4 -4 -4 -4 -4 -3 -3 -4 -4 -5 -5 -5 -5 -5 -5 -5 -5 -5 -5 -6 -7 -8 -8 -9 -10 -10
-1 -1 -2 -1 -0 -1 -2 -2 -2 -3 -3 -3 -3 -4 -4 -4 -4 -4 -4 -4 -3 -3 -4 -4 -4 -5 -5 -5 -5 -5 -5 -5 -5 -5 -6 -7 -8 -8 -9 -10 -10 -11 -11
-1 -2 -2 -2 -1 -1 -2 -3 -2 -3 -3 -3 -3 -3 -3 -4 -4 -3 -3 -4 -4 -4 -4 -5 -5 -5 -5 -5 -5 -5 -5 -5 -6 -6 -7 -8 -9 -9 -10 -11 -11 -12 -11
-1 -1 -2 -2 -2 -2 -2 -3 -3 -3 -4 -4 -4 -4 -4 -4 -4 -4 -4 -4 -4 -5 -5 -5 -5 -5 -5 -5 -5 -5 -6 -6 -6 -7 -8 -10 -10 -11 -11 -12 -12 -12 -12
-3 -2 -2 -2 -3 -2 -3 -3 -3 -3 -4 -4 -4 -4 -4 -4 -4 -4 -4 -5 -5 -5 -5 -5 -5 -5 -5 -5 -5 -6 -6 -7 -8 -9 -10 -11 -11 -12 -12 -12 -12 -12 -12
Height
3081 3082 3086 3088 3091 3093 3095 3098 3100 3103 3105 3106 3109 3112 3116 3118 3120 3122 3124 3127 3129 3130 3132 3133 3133 3133 3133 3134 3133 3132 3132 3131 3131 3131 3130 3129 3128 3126 3126 3125 3124 3123 3121
3071 3074 3076 3079 3081 3084 3086 3090 3093 3097 3098 3100 3102 3103 3109 3111 3113 3115 3118 3120 3122 3124 3126 3128 3128 3128 3128 3128 3128 3128 3127 3127 3126 3126 3125 3124 3123 3121 3120 3119 3119 3118 3117
3061 3065 3068 3070 3072 3073 3077 3080 3084 3088 3090 3093 3094 3095 3098 3101 3104 3107 3111 3114 3116 3118 3121 3122 3122 3122 3123 3123 3123 3122 3122 3122 3121 3121 3120 3118 3117 3116 3115 3114 3113 3112 3110
3054 3057 3059 3060 3063 3066 3069 3071 3075 3077 3080 3084 3084 3087 3088 3091 3096 3101 3105 3107 3107 3111 3114 3115 3116 3116 3116 3116 3117 3117 3116 3116 3116 3115 3115 3113 3112 3110 3108 3108 3107 3106 3104
3048 3049 3051 3052 3055 3059 3062 3064 3067 3068 3071 3072 3074 3077 3080 3083 3087 3092 3096 3098 3100 3101 3106 3108 3109 3110 3110 3110 3111 3111 3110 3110 3110 3108 3108 3107 3106 3105 3103 3102 3101 3099 3097
3046 3047 3048 3049 3049 3051 3054 3056 3059 3062 3063 3064 3066 3068 3071 3075 3079 3081 3085 3089 3092 3095 3097 3100 3101 3103 3105 3105 3104 3104 3104 3103 3103 3102 3102 3100 3099 3098 3097 3095 3094 3092 3090
3044 3045 3046 3047 3048 3049 3049 3049 3049 3051 3054 3055 3057 3060 3062 3066 3069 3073 3076 3080 3084 3086 3089 3091 3093 3095 3096 3097 3097 3097 3097 3096 3096 3095 3095 3093 3091 3090 3089 3088 3086 3084 3084
3041 3041 3042 3043 3042 3043 3043 3044 3045 3046 3046 3046 3048 3050 3053 3056 3059 3063 3067 3070 3074 3078 3080 3083 3084 3086 3088 3089 3089 3090 3089 3088 3087 3086 3086 3085 3083 3082 3080 3079 3077 3074 3071
3039 3039 3039 3038 3037 3037 3037 3037 3038 3040 3041 3041 3040 3041 3042 3044 3048 3053 3057 3060 3064 3068 3070 3073 3076 3078 3080 3081 3081 3082 3081 3081 3080 3080 3077 3074 3075 3074 3072 3070 3067 3064 3058
3036 3035 3034 3033 3032 3031 3030 3029 3028 3028 3029 3030 3032 3033 3033 3035 3038 3042 3046 3051 3054 3058 3061 3064 3067 3069 3071 3072 3073 3073 3073 3072 3072 3071 3070 3068 3066 3066 3064 3063 3059 3054 3049
3030 3029 3028 3026 3024 3022 3020 3019 3017 3015 3013 3016 3019 3023 3025 3026 3028 3032 3036 3041 3045 3049 3052 3055 3057 3059 3061 3063 3064 3064 3065 3064 3062 3061 3061 3060 3058 3057 3055 3052 3049 3045 3038
3025 3022 3019 3017 3015 3011 3008 3005 3004 3003 3001 3001 3005 3010 3016 3019 3020 3021 3026 3031 3037 3041 3044 3046 3049 3050 3052 3053 3054 3054 3055 3054 3053 3053 3052 3052 3051 3049 3046 3043 3040 3034 3028
3018 3015 3012 3009 3006 3003 3000 2996 2991 2989 2988 2988 2992 2998 3005 3011 3014 3015 3019 3024 3028 3032 3035 3038 3039 3041 3043 3044 3045 3045 3045 3045 3045 3043 3042 3045 3044 3041 3037 3033 3029 3024 3019
3012 3008 3003 3000 2997 2993 2989 2986 2982 2979 2978 2979 2982 2991 2997 3002 3006 3008 3011 3016 3020 3024 3027 3030 3032 3036 3036 3038 3038 3038 3037 3039 3037 3038 3039 3037 3034 3032 3028 3023 3019 3013 3007
3006 3002 2997 2994 2991 2988 2984 2979 2976 2972 2970 2971 2974 2984 2990 2995 2998 3002 3005 3009 3014 3017 3019 3023 3025 3028 3029 3029 3032 3033 3031 3031 3033 3031 3030 3028 3024 3022 3018 3012 3007 3001 2997
3002 2996 2992 2990 2988 2986 2981 2977 2974 2971 2968 2969 2971 2978 2985 2990 2993 2996 3001 3004 3006 3009 3015 3018 3018 3023 3023 3025 3024 3023 3026 3027 3025 3024 3022 3019 3016 3013 3007 3002 2997 2991 2985
2997 2992 2988 2986 2985 2983 2979 2976 2974 2971 2970 2971 2974 2978 2983 2987 2989 2993 2996 2998 3002 3007 3010 3012 3013 3014 3017 3020 3020 3021 3022 3020 3018 3017 3016 3012 3007 3003 2999 2993 2986 2981 2975
2993 2988 2986 2983 2982 2978 2976 2975 2973 2972 2972 2974 2978 2979 2982 2985 2988 2991 2991 2997 2998 3001 3003 3008 3008 3010 3015 3014 3015 3017 3016 3012 3013 3012 3007 3003 3000 2995 2988 2982 2977 2971 2964
2990 2986 2983 2980 2978 2975 2973 2974 2973 2975 2975 2976 2977 2978 2980 2984 2986 2989 2994 2993 2997 2997 3004 3005 3010 3010 3010 3012 3012 3011 3009 3009 3007 3002 2998 2995 2991 2984 2979 2972 2965 2958 2952
2987 2984 2982 2979 2976 2974 2973 2973 2973 2975 2975 2976 2978 2979 2982 2983 2985 2989 2992 2994 2997 3002 3005 3006 3007 3007 3008 3009 3008 3007 3004 3002 2999 2995 2992 2986 2980 2974 2967 2960 2953 2946 2940
2986 2983 2981 2978 2977 2975 2975 2974 2974 2975 2975 2978 2979 2981 2982 2984 2987 2992 2992 2997 3000 3002 3003 3005 3005 3005 3005 3004 3003 3001 2998 2997 2994 2991 2985 2977 2970 2964 2957 2949 2942 2935 2929
2983 2981 2981 2979 2978 2976 2976 2976 2977 2978 2979 2980 2981 2983 2986 2989 2993 2995 2997 2999 3000 3001 3002 3003 3003 3001 3000 2998 2997 2996 2993 2990 2986 2981 2974 2967 2961 2954 2947 2940 2933 2927 2922
2984 2981 2980 2979 2978 2976 2976 2978 2979 2980 2983 2986 2988 2990 2992 2994 2996 2997 2998 3000 3001 3002 3001 3000 2998 2998 2997 2996 2993 2990 2986 2982 2976 2971 2963 2957 2951 2944 2938 2931 2925 2921 2917
2986 2984 2983 2982 2981 2979 2979 2983 2984 2985 2989 2991 2992 2993 2994 2996 2997 2998 2998 2998 2999 2999 2998 2997 2996 2995 2994 2991 2988 2984 2979 2973 2967 2962 2954 2947 2941 2933 2927 2922 2918 2914 2911
2988 2987 2986 2986 2986 2984 2985 2987 2989 2990 2992 2994 2995 2996 2997 2997 2997 2998 2998 2998 2998 2997 2996 2995 2994 2992 2989 2986 2982 2976 2971 2965 2958 2952 2945 2938 2932 2926 2921 2917 2913 2910 2907
2990 2989 2989 2989 2989 2990 2990 2992 2993 2994 2995 2995 2996 2996 2997 2998 2998 2998 2997 2996 2996 2995 2994 2992 2990 2988 2984 2980 2975 2969 2962 2955 2948 2941 2934 2929 2924 2919 2916 2914 2911 2907 2904
Wind_Speed
40 44 43 47 50 50 50 46 43 42 42 41 39 37 33 32 32 29 25 25 26 26 23 21 20 22 21 21 21 20 18 19 18 18 20 24 23 22 22 23 28 29 25
33 35 36 37 42 49 56 55 51 47 46 45 45 44 39 36 34 32 30 29 29 28 25 22 21 21 23 24 22 21 21 20 20 20 22 23 24 24 24 25 23 24 24
30 31 33 33 35 38 40 52 55 53 50 47 44 46 45 44 41 38 35 32 33 31 27 24 23 23 22 24 24 24 24 22 22 23 25 25 26 26 27 25 25 26 27
33 32 34 36 38 38 35 38 42 48 55 58 60 54 51 49 43 36 34 34 35 33 29 26 26 25 23 24 25 27 26 27 26 25 26 27 27 28 29 26 27 29 30
17 21 23 28 34 38 39 40 41 40 42 43 51 55 53 51 45 41 36 37 39 37 33 32 30 28 27 24 26 28 30 31 30 30 28 27 29 28 27 29 30 31 32
14 16 17 18 20 23 30 36 40 42 43 43 43 47 51 51 47 45 42 40 38 35 34 35 33 31 29 26 26 28 33 35 32 32 34 31 29 28 32 31 33 33 34
13 15 16 17 18 20 22 25 29 33 41 45 45 46 48 46 45 46 45 42 39 37 36 35 35 35 31 29 29 32 35 33 33 33 35 31 30 33 34 33 34 36 36
11 14 17 19 21 22 25 27 28 29 31 36 42 47 48 46 47 42 43 43 42 38 40 39 37 36 35 33 31 32 36 35 36 36 35 34 33 34 34 33 36 39 42
16 18 20 21 22 23 25 27 28 30 32 34 37 39 42 46 44 45 47 47 44 41 42 41 40 39 40 37 34 33 35 37 27 36 37 35 36 35 33 35 38 41 47
23 25 26 27 29 32 34 36 39 40 39 38 35 34 39 43 41 44 40 39 40 44 45 43 41 40 39 38 36 34 40 32 33 34 36 40 33 33 33 38 40 43 48
27 32 34 36 38 40 43 45 48 49 52 48 43 37 35 32 34 36 41 38 38 38 38 38 37 37 38 38 36 38 35 36 38 34 33 36 37 32 35 38 44 46 49
35 36 34 33 32 35 37 33 34 37 41 52 51 46 36 28 26 29 37 37 36 36 34 35 36 36 38 35 40 37 38 36 37 38 32 34 34 35 37 40 47 46 45
26 24 26 28 30 27 29 33 37 37 35 37 46 44 39 33 25 24 32 34 35 34 33 36 37 36 34 39 37 39 41 42 37 30 27 32 33 36 40 44 44 44 45
22 23 25 19 18 24 27 31 30 29 26 31 32 38 32 26 25 25 29 32 33 35 34 33 33 34 38 36 38 43 38 40 34 27 27 30 33 39 42 41 42 43 46
22 26 22 14 18 22 26 18 20 19 16 17 25 33 31 25 26 26 25 31 33 34 33 34 32 35 34 40 36 40 31 24 24 25 28 34 36 38 39 41 42 45 48
22 25 18 14 16 17 14 14 14 9 6 14 25 33 26 22 25 24 21 26 27 30 34 30 35 37 36 44 40 34 21 22 24 27 32 32 35 38 39 41 44 46 49
20 22 18 13 12 10 9 8 12 4 1 3 21 28 20 20 15 16 22 23 18 23 32 32 40 38 28 29 17 17 22 24 26 28 31 33 35 38 40 42 44 48 51
20 19 16 12 8 6 4 6 8 7 7 9 12 13 19 12 13 17 18 23 25 31 31 34 24 23 17 14 16 20 23 22 26 29 31 33 36 38 40 44 47 51 50
20 13 13 8 3 5 5 4 4 3 4 1 3 6 8 13 16 9 21 17 25 18 22 14 11 10 10 13 18 19 21 24 27 30 33 36 37 38 42 47 50 50 49
15 8 8 6 5 5 5 5 2 2 5 8 8 9 11 6 6 13 20 14 13 14 10 9 8 9 12 13 16 19 22 26 28 31 34 37 40 43 46 49 50 51 49
6 4 4 6 8 8 5 6 8 9 9 8 7 7 3 5 2 12 17 13 11 7 3 5 7 9 12 15 18 21 24 26 28 31 35 39 43 45 47 48 49 47 43
8 3 1 2 5 1 4 7 9 7 5 8 8 15 19 18 16 13 10 7 3 1 3 5 8 11 15 19 21 24 26 29 32 35 39 43 45 45 46 45 43 38 31
12 8 9 10 8 3 6 6 8 17 20 21 18 17 16 13 10 7 5 3 1 2 5 9 12 15 17 20 23 26 30 33 37 40 44 45 45 45 43 38 34 27 24
11 14 12 13 17 22 25 21 21 22 18 15 13 12 10 7 6 4 3 3 4 7 10 11 13 16 19 23 26 30 34 38 41 43 44 44 43 41 37 30 25 23 23
7 11 14 13 13 17 19 17 16 16 14 12 9 8 7 6 4 3 3 5 7 10 12 14 17 20 23 27 31 34 38 41 44 45 44 40 36 32 27 21 20 21 22
2 8 10 10 11 11 13 12 11 10 9 8 7 7 5 3 2 4 7 9 10 12 14 17 20 23 27 31 34 38 41 45 46 44 41 36 30 25 17 14 16 19 21
Wind_Direction
243 242 242 242 240 245 248 248 246 251 255 260 261 258 254 252 254 253 250 250 251 251 253 252 258 264 264 261 262 269 274 279 273 277 285 297 304 298 282 285 293 286 294
241 237 238 239 243 245 246 245 245 243 245 250 258 259 259 255 252 254 249 248 250 253 251 254 258 260 261 259 266 267 271 276 272 273 276 286 297 297 286 282 285 288 294
237 229 230 234 238 242 245 243 244 242 243 244 247 253 254 252 249 249 252 252 253 251 249 252 255 256 258 260 265 264 270 275 272 270 273 291 290 299 288 278 286 291 294
246 238 237 234 234 237 239 241 243 245 245 245 246 247 254 257 255 255 259 257 257 256 253 252 255 253 260 262 263 268 269 272 275 270 272 277 285 292 289 274 285 290 294
232 234 240 243 243 241 242 242 241 241 241 244 246 244 244 252 253 253 254 254 255 259 258 255 255 257 263 269 269 269 273 272 270 269 275 272 285 288 279 280 284 287 293
233 234 234 234 235 239 241 244 248 248 248 247 248 244 242 246 250 252 248 250 252 255 260 255 255 254 258 264 271 273 272 270 269 267 278 272 287 281 279 275 281 287 293
252 254 256 254 252 250 246 244 243 241 247 247 249 249 248 248 249 251 253 254 255 258 261 263 258 254 256 262 268 272 279 271 266 261 273 275 276 287 279 275 281 286 290
282 289 287 278 271 264 262 260 258 250 243 244 248 251 251 251 251 250 248 249 250 252 254 260 256 258 259 264 263 269 279 276 279 271 272 271 280 275 277 277 285 291 294
278 279 275 273 272 273 274 274 272 269 264 261 257 252 250 250 249 248 251 250 248 245 249 254 255 259 260 259 262 265 270 272 271 274 276 260 276 279 275 281 287 292 296
269 269 271 272 275 277 278 278 277 274 270 264 261 264 259 254 252 247 244 248 250 249 250 252 256 257 254 255 259 265 270 261 264 263 277 264 275 270 278 286 291 294 298
279 279 278 278 277 276 274 271 271 272 273 268 264 260 256 256 255 251 243 240 244 249 253 251 252 254 254 254 256 261 257 269 257 269 269 274 269 278 281 287 292 297 299
293 290 285 281 283 281 281 278 273 268 262 259 260 262 258 255 253 253 237 236 241 247 246 247 251 250 253 255 252 256 255 258 261 259 261 272 276 280 286 291 295 297 300
292 293 286 281 276 273 278 283 280 274 264 256 246 246 251 251 257 248 231 230 236 241 245 248 249 248 251 244 250 251 256 247 250 254 269 273 280 287 291 293 295 298 300
306 315 303 289 287 295 295 290 288 283 269 251 243 232 235 236 244 245 230 230 232 237 240 245 246 249 239 247 251 252 251 263 257 269 275 282 289 293 293 295 298 301 302
322 321 317 306 301 296 297 284 292 295 272 236 221 215 227 224 234 238 234 233 234 239 242 247 241 245 241 235 252 251 250 257 265 278 288 289 293 294 297 301 302 303 304
317 323 317 299 294 300 304 303 321 303 241 238 205 209 217 230 243 243 237 250 244 239 243 234 229 251 237 249 238 252 262 275 286 289 292 297 298 300 303 303 305 306 307
318 323 314 304 293 296 325 343 18 347 221 191 208 207 224 243 225 245 227 236 229 229 225 236 230 228 240 244 253 265 278 285 293 299 295 298 301 302 303 305 307 308 310
321 316 310 298 290 351 19 55 51 59 43 195 217 223 229 228 226 238 239 219 239 240 222 236 220 226 229 258 272 284 288 306 298 296 299 303 304 305 308 309 309 309 310
321 318 323 304 309 16 55 88 84 104 297 332 30 193 206 237 255 227 235 241 262 211 235 198 220 234 260 280 285 298 304 300 301 305 309 306 306 310 310 309 309 310 312
318 327 329 327 12 33 40 57 59 206 267 296 305 245 242 255 222 230 236 189 173 171 186 204 243 275 288 295 300 303 304 305 308 307 305 308 311 312 313 312 312 313 313
356 348 2 20 40 41 33 61 72 81 75 63 336 302 247 192 234 170 138 153 164 180 219 262 277 293 301 305 306 308 308 307 306 307 310 312 314 314 314 313 313 313 314
339 143 27 345 331 313 79 100 90 89 54 60 89 108 113 126 138 137 148 156 138 267 303 294 306 315 318 319 313 308 310 312 314 315 315 315 315 315 314 314 313 313 314
54 100 86 88 68 116 129 103 87 98 107 115 118 122 129 132 129 130 129 124 175 301 319 328 330 323 317 313 314 316 316 316 317 318 316 316 316 315 314 314 312 312 316
76 92 94 94 98 97 99 106 110 116 122 122 125 126 122 119 116 94 68 33 354 339 332 328 326 323 320 320 320 318 318 318 317 317 315 314 315 316 317 314 314 321 325
81 104 102 103 103 110 114 121 123 124 126 126 123 120 115 101 93 79 26 356 343 340 339 332 328 325 324 322 321 319 317 316 315 315 315 317 317 315 312 313 317 323 326
97 134 125 120 120 119 119 124 128 129 125 119 113 100 94 93 56 16 1 351 343 337 334 331 328 326 323 321 320 318 317 316 316 318 319 320 318 316 313 316 319 322 326